Location: Czekanka
(50.4925°N, 19.2643°E)
Time: 12:20:16
(UTC+00:00)

FENGYUN 1C DEB - Pass Details

Date: 20 November 2025
Orbit: 800 x 866 km, 98.6° (Epoch: 04 December)

Event Time Altitude Azimuth Distance (km) Brightness Sun altitude
Rises 01:34:26 0° 30° (NNE) 3,328 ? -42.3°
Reaches altitude 10° 01:38:12 10° 57° (ENE) 2,385 ? -41.7°
Maximum altitude 01:40:37 13° 85° (E) 2,164 ? -41.4°
Drops below altitude 10° 01:43:01 10° 113° (ESE) 2,375 ? -41.0°
Sets 01:46:44 0° 140° (SE) 3,302 ? -40.5°
